Time,TemperatureF,DewpointF,PressureIn,WindDirection,WindDirectionDegrees,WindSpeedMPH,WindSpeedGustMPH,Humidity,HourlyPrecipIn,Conditions,Clouds,dailyrainin,SoftwareType,DateUTC
2013-01-24 00:02:00,15.0,10.0,-100.00,NNE,28,2.0,3.0,83,0.00,,,-99.99,,2013-01-24 07:02:00,
2013-01-24 00:12:00,14.0,10.0,-100.00,North,6,6.0,7.0,84,0.00,,,-99.99,,2013-01-24 07:12:00,
2013-01-24 00:22:00,15.0,11.0,-100.00,North,353,4.0,5.0,83,0.00,,,-99.99,,2013-01-24 07:22:00,
2013-01-24 00:32:00,15.0,11.0,-100.00,North,353,4.0,5.0,83,0.00,,,-99.99,,2013-01-24 07:32:00,
2013-01-24 00:42:00,14.0,10.0,-100.00,NNW,342,4.0,5.0,83,0.00,,,-99.99,,2013-01-24 07:42:00,
2013-01-24 00:53:00,14.0,10.0,-100.00,NNW,342,4.0,5.0,83,0.00,,,-99.99,,2013-01-24 07:53:00,
2013-01-24 01:02:00,14.0,10.0,-100.00,NNW,342,4.0,5.0,83,0.00,,,-99.99,,2013-01-24 08:02:00,
2013-01-24 01:12:00,14.0,10.0,-100.00,NNW,347,2.0,3.0,84,0.00,,,-99.99,,2013-01-24 08:12:00,
2013-01-24 01:22:00,14.0,10.0,-100.00,NNW,335,3.0,4.0,82,0.00,,,-99.99,,2013-01-24 08:22:00,
2013-01-24 01:32:00,14.0,10.0,-100.00,NNW,335,3.0,4.0,82,0.00,,,-99.99,,2013-01-24 08:32:00,
2013-01-24 01:42:00,14.0,10.0,-100.00,NNW,333,4.0,4.0,83,0.00,,,-99.99,,2013-01-24 08:42:00,
2013-01-24 01:53:00,14.0,10.0,-100.00,NNW,333,4.0,4.0,83,0.00,,,-99.99,,2013-01-24 08:53:00,
2013-01-24 02:02:00,14.0,10.0,-100.00,NNW,333,4.0,4.0,83,0.00,,,-99.99,,2013-01-24 09:02:00,
2013-01-24 02:12:00,13.0,10.0,-100.00,NNE,28,3.0,3.0,85,0.00,,,-99.99,,2013-01-24 09:12:00,
2013-01-24 02:22:00,14.0,10.0,-100.00,North,8,6.0,6.0,83,0.00,,,-99.99,,2013-01-24 09:22:00,
2013-01-24 02:32:00,14.0,10.0,-100.00,North,8,6.0,6.0,83,0.00,,,-99.99,,2013-01-24 09:32:00,
2013-01-24 02:43:00,14.0,10.0,-100.00,NNW,347,4.0,4.0,83,0.00,,,-99.99,,2013-01-24 09:43:00,
2013-01-24 02:53:00,14.0,10.0,-100.00,NNW,347,4.0,4.0,83,0.00,,,-99.99,,2013-01-24 09:53:00,
2013-01-24 03:02:00,14.0,10.0,-100.00,NNW,347,4.0,4.0,83,0.00,,,-99.99,,2013-01-24 10:02:00,
2013-01-24 03:12:00,15.0,10.0,-100.00,NNE,17,5.0,6.0,82,0.00,,,-99.99,,2013-01-24 10:12:00,
2013-01-24 03:22:00,15.0,11.0,-100.00,NNE,21,5.0,6.0,84,0.00,,,-99.99,,2013-01-24 10:22:00,
2013-01-24 03:32:00,15.0,11.0,-100.00,NNE,21,5.0,6.0,84,0.00,,,-99.99,,2013-01-24 10:32:00,
2013-01-24 03:43:00,16.0,12.0,-100.00,NNE,23,5.0,6.0,83,0.00,,,-99.99,,2013-01-24 10:43:00,
2013-01-24 03:53:00,16.0,12.0,-100.00,NW,326,7.0,8.0,84,0.00,,,-99.99,,2013-01-24 10:53:00,
2013-01-24 04:02:00,16.0,12.0,-100.00,NW,326,7.0,8.0,84,0.00,,,-99.99,,2013-01-24 11:02:00,
2013-01-24 04:12:00,16.0,12.0,-100.00,NW,326,7.0,8.0,84,0.00,,,-99.99,,2013-01-24 11:12:00,
2013-01-24 04:22:00,17.0,13.0,-100.00,NE,37,5.0,6.0,83,0.00,,,-99.99,,2013-01-24 11:22:00,
2013-01-24 04:32:00,17.0,13.0,-100.00,NE,37,5.0,6.0,83,0.00,,,-99.99,,2013-01-24 11:32:00,
2013-01-24 04:43:00,18.0,14.0,-100.00,North,1,4.0,4.0,85,0.00,,,-99.99,,2013-01-24 11:43:00,
2013-01-24 04:53:00,18.0,14.0,-100.00,North,4,3.0,4.0,85,0.00,,,-99.99,,2013-01-24 11:53:00,
2013-01-24 05:03:00,18.0,14.0,-100.00,North,4,3.0,4.0,85,0.00,,,-99.99,,2013-01-24 12:03:00,
2013-01-24 05:12:00,18.0,15.0,-100.00,NW,326,1.0,2.0,84,0.00,,,-99.99,,2013-01-24 12:12:00,
2013-01-24 05:22:00,18.0,15.0,-100.00,NW,326,1.0,2.0,84,0.00,,,-99.99,,2013-01-24 12:22:00,
2013-01-24 05:32:00,18.0,15.0,-100.00,NW,326,1.0,2.0,84,0.00,,,-99.99,,2013-01-24 12:32:00,
2013-01-24 05:42:00,19.0,15.0,-100.00,West,281,2.0,3.0,83,0.00,,,-99.99,,2013-01-24 12:42:00,
2013-01-24 05:53:00,19.0,16.0,-100.00,SE,137,3.0,4.0,85,0.00,,,-99.99,,2013-01-24 12:53:00,
2013-01-24 06:02:00,19.0,16.0,-100.00,SE,137,3.0,4.0,85,0.00,,,-99.99,,2013-01-24 13:02:00,
2013-01-24 06:12:00,20.0,16.0,-100.00,SSE,154,3.0,4.0,87,0.00,,,-99.99,,2013-01-24 13:12:00,
2013-01-24 06:22:00,20.0,16.0,-100.00,SSE,154,3.0,4.0,87,0.00,,,-99.99,,2013-01-24 13:22:00,
2013-01-24 06:32:00,20.0,16.0,-100.00,SSE,154,3.0,4.0,87,0.00,,,-99.99,,2013-01-24 13:32:00,
2013-01-24 06:42:00,20.0,16.0,-100.00,SE,143,6.0,8.0,83,0.00,,,-99.99,,2013-01-24 13:42:00,
2013-01-24 06:53:00,20.0,17.0,-100.00,SSE,150,10.0,11.0,87,0.00,,,-99.99,,2013-01-24 13:53:00,
2013-01-24 07:02:00,20.0,17.0,-100.00,SSE,150,10.0,11.0,87,0.00,,,-99.99,,2013-01-24 14:02:00,
2013-01-24 07:12:00,21.0,18.0,-100.00,SSE,161,8.0,9.0,87,0.00,,,-99.99,,2013-01-24 14:12:00,
2013-01-24 07:22:00,21.0,18.0,-100.00,SSE,161,8.0,9.0,87,0.00,,,-99.99,,2013-01-24 14:22:00,
2013-01-24 07:32:00,21.0,18.0,-100.00,SSE,161,8.0,9.0,87,0.00,,,-99.99,,2013-01-24 14:32:00,
2013-01-24 07:43:00,22.0,18.0,-100.00,SSE,160,6.0,7.0,86,0.00,,,-99.99,,2013-01-24 14:43:00,
2013-01-24 07:54:00,22.0,18.0,-100.00,South,174,3.0,4.0,86,0.00,,,-99.99,,2013-01-24 14:54:00,
2013-01-24 08:03:00,22.0,18.0,-100.00,South,174,3.0,4.0,86,0.00,,,-99.99,,2013-01-24 15:03:00,
2013-01-24 08:12:00,23.0,19.0,-100.00,SSE,155,4.0,4.0,87,0.00,,,-99.99,,2013-01-24 15:12:00,
2013-01-24 08:22:00,23.0,20.0,-100.00,SSE,167,5.0,6.0,86,0.00,,,-99.99,,2013-01-24 15:22:00,
2013-01-24 08:32:00,23.0,20.0,-100.00,SSE,167,5.0,6.0,86,0.00,,,-99.99,,2013-01-24 15:32:00,
2013-01-24 08:42:00,24.0,21.0,-100.00,SSE,160,4.0,6.0,86,0.00,,,-99.99,,2013-01-24 15:42:00,
2013-01-24 08:53:00,26.0,23.0,-100.00,SSE,167,5.0,7.0,89,0.00,,,-99.99,,2013-01-24 15:53:00,
2013-01-24 09:02:00,26.0,23.0,-100.00,SSE,167,5.0,7.0,89,0.00,,,-99.99,,2013-01-24 16:02:00,
2013-01-24 09:12:00,28.0,25.0,-100.00,South,189,7.0,9.0,88,0.00,,,-99.99,,2013-01-24 16:12:00,
2013-01-24 09:22:00,29.0,26.0,-100.00,South,188,7.0,10.0,89,0.00,,,-99.99,,2013-01-24 16:22:00,
2013-01-24 09:33:00,29.0,26.0,-100.00,South,188,7.0,10.0,89,0.00,,,-99.99,,2013-01-24 16:33:00,
2013-01-24 09:42:00,29.0,26.0,-100.00,South,188,7.0,10.0,89,0.00,,,-99.99,,2013-01-24 16:42:00,
2013-01-24 10:01:00,30.0,27.0,-100.00,South,186,7.0,11.0,90,0.04,,,-99.99,,2013-01-24 17:01:00,
2013-01-24 10:11:00,30.0,28.0,-100.00,South,182,8.0,10.0,92,0.00,,,-99.99,,2013-01-24 17:11:00,
2013-01-24 10:21:00,30.0,28.0,-100.00,South,182,8.0,10.0,92,0.00,,,-99.99,,2013-01-24 17:21:00,
2013-01-24 10:32:00,30.0,28.0,-100.00,SSW,193,10.0,16.0,93,0.04,,,-99.99,,2013-01-24 17:32:00,
2013-01-24 10:42:00,30.0,28.0,-100.00,SSW,193,10.0,16.0,93,0.04,,,-99.99,,2013-01-24 17:42:00,
2013-01-24 10:52:00,30.0,28.0,-100.00,SSW,193,9.0,13.0,94,0.04,,,-99.99,,2013-01-24 17:52:00,
2013-01-24 11:01:00,30.0,28.0,-100.00,SSW,193,9.0,13.0,94,0.04,,,-99.99,,2013-01-24 18:01:00,
2013-01-24 11:12:00,30.0,28.0,-100.00,SSW,193,9.0,13.0,94,0.04,,,-99.99,,2013-01-24 18:12:00,
2013-01-24 11:22:00,31.0,29.0,-100.00,South,188,10.0,13.0,94,0.00,,,-99.99,,2013-01-24 18:22:00,
2013-01-24 11:30:00,32.0,29.0,-100.00,South,185,8.0,11.0,89,0.00,,,-99.99,,2013-01-24 18:30:00,
2013-01-24 11:32:00,31.0,29.0,-100.00,South,188,10.0,13.0,94,0.00,,,-99.99,,2013-01-24 18:32:00,
2013-01-24 11:42:00,31.0,29.0,-100.00,South,189,9.0,14.0,90,0.00,,,-99.99,,2013-01-24 18:42:00,
2013-01-24 11:53:00,31.0,29.0,-100.00,South,189,9.0,14.0,90,0.00,,,-99.99,,2013-01-24 18:53:00,
2013-01-24 12:01:00,31.0,29.0,-100.00,South,189,9.0,14.0,90,0.00,,,-99.99,,2013-01-24 19:01:00,
2013-01-24 12:12:00,32.0,29.0,-100.00,South,185,8.0,11.0,89,0.00,,,-99.99,,2013-01-24 19:12:00,
2013-01-24 12:21:00,32.0,29.0,-100.00,South,185,8.0,11.0,89,0.00,,,-99.99,,2013-01-24 19:21:00,
2013-01-24 12:42:00,33.0,30.0,-100.00,South,179,8.0,12.0,90,0.00,,,-99.99,,2013-01-24 19:42:00,
2013-01-24 12:52:00,33.0,31.0,-100.00,South,188,9.0,13.0,91,0.00,,,-99.99,,2013-01-24 19:52:00,
2013-01-24 13:01:00,33.0,31.0,-100.00,South,188,9.0,13.0,91,0.00,,,-99.99,,2013-01-24 20:01:00,
2013-01-24 13:11:00,33.0,31.0,-100.00,South,188,9.0,13.0,91,0.00,,,-99.99,,2013-01-24 20:11:00,
2013-01-24 13:22:00,33.0,31.0,-100.00,South,182,6.0,9.0,90,0.00,,,-99.99,,2013-01-24 20:22:00,
2013-01-24 13:32:00,33.0,31.0,-100.00,South,182,6.0,9.0,90,0.00,,,-99.99,,2013-01-24 20:32:00,
2013-01-24 13:42:00,33.0,31.0,-100.00,SSW,199,6.0,8.0,90,0.00,,,-99.99,,2013-01-24 20:42:00,
2013-01-24 13:52:00,34.0,31.0,-100.00,SSW,196,6.0,7.0,89,0.00,,,-99.99,,2013-01-24 20:52:00,
2013-01-24 14:02:00,34.0,31.0,-100.00,SSW,196,6.0,7.0,89,0.00,,,-99.99,,2013-01-24 21:02:00,
2013-01-24 14:11:00,34.0,31.0,-100.00,SSW,192,4.0,6.0,89,0.00,,,-99.99,,2013-01-24 21:11:00,
2013-01-24 14:22:00,34.0,31.0,-100.00,SSW,192,4.0,6.0,89,0.00,,,-99.99,,2013-01-24 21:22:00,
2013-01-24 14:32:00,34.0,31.0,-100.00,SSW,192,4.0,6.0,89,0.00,,,-99.99,,2013-01-24 21:32:00,
2013-01-24 14:42:00,34.0,31.0,-100.00,South,174,9.0,12.0,91,0.00,,,-99.99,,2013-01-24 21:42:00,
2013-01-24 14:53:00,34.0,31.0,-100.00,South,174,9.0,12.0,91,0.00,,,-99.99,,2013-01-24 21:53:00,
2013-01-24 15:02:00,34.0,31.0,-100.00,South,176,8.0,10.0,91,0.00,,,-99.99,,2013-01-24 22:02:00,
2013-01-24 15:12:00,34.0,32.0,-100.00,South,178,11.0,13.0,92,0.00,,,-99.99,,2013-01-24 22:12:00,
2013-01-24 15:22:00,34.0,32.0,-100.00,South,178,11.0,13.0,92,0.00,,,-99.99,,2013-01-24 22:22:00,
2013-01-24 15:32:00,34.0,32.0,-100.00,South,178,11.0,13.0,92,0.00,,,-99.99,,2013-01-24 22:32:00,
2013-01-24 15:42:00,34.0,32.0,-100.00,South,176,9.0,12.0,91,0.00,,,-99.99,,2013-01-24 22:42:00,
2013-01-24 15:53:00,34.0,32.0,-100.00,South,186,6.0,10.0,90,0.00,,,-99.99,,2013-01-24 22:53:00,
2013-01-24 16:02:00,34.0,32.0,-100.00,South,186,6.0,10.0,90,0.00,,,-99.99,,2013-01-24 23:02:00,
2013-01-24 16:11:00,34.0,32.0,-100.00,South,188,5.0,6.0,90,0.00,,,-99.99,,2013-01-24 23:11:00,
2013-01-24 16:21:00,34.0,32.0,-100.00,SSW,196,5.0,8.0,91,0.00,,,-99.99,,2013-01-24 23:21:00,
2013-01-24 16:32:00,34.0,32.0,-100.00,SSW,196,5.0,8.0,91,0.00,,,-99.99,,2013-01-24 23:32:00,
2013-01-24 16:42:00,34.0,32.0,-100.00,SSW,196,5.0,8.0,91,0.00,,,-99.99,,2013-01-24 23:42:00,
2013-01-24 16:52:00,34.0,32.0,-100.00,SSW,192,4.0,5.0,91,0.00,,,-99.99,,2013-01-24 23:52:00,
2013-01-24 17:01:00,34.0,32.0,-100.00,SSW,192,4.0,5.0,91,0.00,,,-99.99,,2013-01-25 00:01:00,
2013-01-24 17:12:00,34.0,32.0,-100.00,SW,220,3.0,5.0,91,0.00,,,-99.99,,2013-01-25 00:12:00,
2013-01-24 17:22:00,34.0,32.0,-100.00,WSW,241,6.0,7.0,91,0.00,,,-99.99,,2013-01-25 00:22:00,
2013-01-24 17:32:00,34.0,32.0,-100.00,WSW,241,6.0,7.0,91,0.00,,,-99.99,,2013-01-25 00:32:00,
2013-01-24 17:41:00,34.0,32.0,-100.00,SW,230,6.0,6.0,93,0.00,,,-99.99,,2013-01-25 00:41:00,
2013-01-24 17:52:00,34.0,32.0,-100.00,SW,230,6.0,6.0,93,0.00,,,-99.99,,2013-01-25 00:52:00,
2013-01-24 18:01:00,34.0,32.0,-100.00,SW,230,6.0,6.0,93,0.00,,,-99.99,,2013-01-25 01:01:00,
2013-01-24 18:11:00,34.0,32.0,-100.00,SSW,196,3.0,4.0,93,0.00,,,-99.99,,2013-01-25 01:11:00,
2013-01-24 18:21:00,34.0,32.0,-100.00,South,189,3.0,5.0,92,0.00,,,-99.99,,2013-01-25 01:21:00,
2013-01-24 18:31:00,34.0,32.0,-100.00,South,189,3.0,5.0,92,0.00,,,-99.99,,2013-01-25 01:31:00,
2013-01-24 18:41:00,34.0,32.0,-100.00,South,186,5.0,6.0,91,0.00,,,-99.99,,2013-01-25 01:41:00,
2013-01-24 18:52:00,34.0,32.0,-100.00,South,186,5.0,6.0,91,0.00,,,-99.99,,2013-01-25 01:52:00,
2013-01-24 19:01:00,34.0,32.0,-100.00,South,186,5.0,6.0,91,0.00,,,-99.99,,2013-01-25 02:01:00,
2013-01-24 19:11:00,34.0,32.0,-100.00,South,186,4.0,6.0,91,0.00,,,-99.99,,2013-01-25 02:11:00,
2013-01-24 19:22:00,34.0,32.0,-100.00,South,185,3.0,5.0,92,0.00,,,-99.99,,2013-01-25 02:22:00,
2013-01-24 19:32:00,34.0,32.0,-100.00,South,185,3.0,5.0,92,0.00,,,-99.99,,2013-01-25 02:32:00,
2013-01-24 19:42:00,34.0,32.0,-100.00,South,186,3.0,4.0,91,0.00,,,-99.99,,2013-01-25 02:42:00,
2013-01-24 19:52:00,34.0,32.0,-100.00,South,186,3.0,4.0,91,0.00,,,-99.99,,2013-01-25 02:52:00,
2013-01-24 20:01:00,34.0,32.0,-100.00,South,186,3.0,4.0,91,0.00,,,-99.99,,2013-01-25 03:01:00,
2013-01-24 20:12:00,34.0,32.0,-100.00,South,188,3.0,4.0,92,0.00,,,-99.99,,2013-01-25 03:12:00,
2013-01-24 20:22:00,34.0,32.0,-100.00,SW,222,6.0,8.0,91,0.00,,,-99.99,,2013-01-25 03:22:00,
2013-01-24 20:32:00,34.0,32.0,-100.00,SW,222,6.0,8.0,91,0.00,,,-99.99,,2013-01-25 03:32:00,
2013-01-24 20:41:00,33.0,31.0,-100.00,SW,230,6.0,8.0,94,0.00,,,-99.99,,2013-01-25 03:41:00,
2013-01-24 20:52:00,32.0,31.0,-100.00,WSW,254,4.0,6.0,94,0.00,,,-99.99,,2013-01-25 03:52:00,
2013-01-24 21:02:00,32.0,31.0,-100.00,WSW,254,4.0,6.0,94,0.00,,,-99.99,,2013-01-25 04:02:00,
2013-01-24 21:11:00,32.0,30.0,-100.00,SW,222,2.0,4.0,92,0.00,,,-99.99,,2013-01-25 04:11:00,
2013-01-24 21:22:00,32.0,30.0,-100.00,SW,222,2.0,4.0,92,0.00,,,-99.99,,2013-01-25 04:22:00,
2013-01-24 21:31:00,32.0,30.0,-100.00,SW,222,2.0,4.0,92,0.00,,,-99.99,,2013-01-25 04:31:00,
2013-01-24 21:41:00,31.0,29.0,-100.00,SW,226,2.0,4.0,94,0.00,,,-99.99,,2013-01-25 04:41:00,
2013-01-24 21:51:00,31.0,29.0,-100.00,West,274,0.0,0.0,93,0.00,,,-99.99,,2013-01-25 04:51:00,
2013-01-24 22:03:00,31.0,29.0,-100.00,West,274,0.0,0.0,93,0.00,,,-99.99,,2013-01-25 05:03:00,
2013-01-24 22:12:00,31.0,29.0,-100.00,SSE,155,2.0,3.0,93,0.00,,,-99.99,,2013-01-25 05:12:00,
2013-01-24 22:22:00,31.0,29.0,-100.00,SSE,155,2.0,3.0,93,0.00,,,-99.99,,2013-01-25 05:22:00,
2013-01-24 22:32:00,31.0,29.0,-100.00,SSE,155,2.0,3.0,93,0.00,,,-99.99,,2013-01-25 05:32:00,
2013-01-24 22:42:00,31.0,29.0,-100.00,ESE,121,4.0,5.0,93,0.00,,,-99.99,,2013-01-25 05:42:00,
2013-01-24 22:52:00,31.0,29.0,-100.00,SSW,209,4.0,5.0,95,0.00,,,-99.99,,2013-01-25 05:52:00,
2013-01-24 23:02:00,31.0,29.0,-100.00,SSW,209,4.0,5.0,95,0.00,,,-99.99,,2013-01-25 06:02:00,
2013-01-24 23:11:00,30.0,29.0,-100.00,WSW,237,6.0,7.0,93,0.00,,,-99.99,,2013-01-25 06:11:00,
2013-01-24 23:21:00,30.0,29.0,-100.00,WSW,237,6.0,7.0,93,0.00,,,-99.99,,2013-01-25 06:21:00,
2013-01-24 23:31:00,30.0,29.0,-100.00,WSW,237,6.0,7.0,93,0.00,,,-99.99,,2013-01-25 06:31:00,
2013-01-24 23:41:00,30.0,29.0,-100.00,WSW,248,6.0,7.0,93,0.00,,,-99.99,,2013-01-25 06:41:00,
2013-01-24 23:52:00,31.0,29.0,-100.00,WSW,239,7.0,8.0,93,0.00,,,-99.99,,2013-01-25 06:52:00,